Location: Tehachapi Municipal Airport
(35.1300°N, 118.4400°W)
Time: 18:53:31
(UTC-08:00)

Daily predictions for brighter satellites

Satellite Brightness Start Highest point End
(mag) Time Altitude Azimuth Time Altitude Azimuth Time Altitude Azimuth
FALCON 9 R/B 3.5 17:40:45 10° W 17:45:56 87° S 18:05:51 10° E
OAO 2 Rocket 3.5 17:58:31 10° WSW 18:03:27 65° SSE 18:08:20 10° E
Cosmos 2082 4.0 17:59:00 10° SSW 18:04:35 75° WNW 18:10:15 10° NNE
Cosmos 2333 Rocket 3.3 18:01:25 10° NNW 18:06:52 51° WSW 18:12:18 10° S
Cosmos 1908 Rocket 4.2 18:04:13 10° SSE 18:08:15 34° E 18:12:19 10° NNE
YAOGAN 1 2.9 18:05:47 10° S 18:10:06 72° W 18:14:25 10° NNW
Tiangong 2 1.3 18:07:58 10° NW 18:11:06 55° NNE 18:14:13 10° ESE
FREGAT/IRIS 4.2 18:10:16 10° ESE 18:12:11 16° ENE 18:14:07 10° NNE
Cosmos 1733 Rocket 3.3 18:09:25 10° S 18:13:42 75° W 18:18:02 10° N
Cosmos 1437 Rocket 3.9 18:15:20 10° SE 18:18:36 24° E 18:21:54 10° NE
Meteor 1-25 Rocket 4.2 18:13:12 10° S 18:18:37 58° E 18:24:03 10° NNE
EO 1 Del DPAF 3.2 18:16:38 10° NNE 18:20:26 68° E 18:24:13 10° S
Cosmos 44 Rocket 3.8 18:21:29 10° NNW 18:26:17 42° ENE 18:31:08 10° SE
Landsat 4 4.0 18:24:25 10° N 18:28:09 71° WNW 18:31:53 10° SSW
NOAA 12 4.2 18:24:50 10° SSE 18:30:07 84° WSW 18:35:29 10° NNW
SeaSat 1 3.8 18:30:03 13° E 18:32:39 19° NE 18:36:05 10° N
Gbstr 26 Del rocket 3.0 18:31:30 10° SSW 18:35:05 46° SE 18:37:47 16° ENE
Cosmos 1975 Rocket 4.0 18:34:30 10° NNE 18:38:18 27° ENE 18:42:05 10° SE
Envisat 3.9 18:37:08 10° SE 18:41:21 27° ENE 18:45:36 10° NNE
HJ-1C 4.1 18:38:18 10° SE 18:41:22 32° ENE 18:44:27 10° N
OE (NEXTSAT) 4.4 18:38:50 10° WSW 18:42:23 83° NNW 18:44:49 19° NE
Resurs 01 Rocket 3.4 18:43:36 14° NE 18:43:36 14° NE 18:45:11 10° NNE
ALOS 3.7 18:40:06 10° S 18:44:29 41° W 18:48:54 10° NNW
COSMOS 2455 3.7 18:40:11 10° SSE 18:45:09 28° ESE 18:48:53 15° ENE
Sakura Rocket 4.5 18:41:28 10° WSW 18:46:31 44° S 18:51:23 18° ESE
USA 215 3.2 18:41:13 10° NE 18:47:45 70° SE 18:54:14 10° SW
FengYun 1-2 T 4.1 18:44:07 10° SSE 18:49:37 76° ENE 18:55:06 10° N
Thor Agena Rocket 3.6 18:47:10 10° NNE 18:52:06 49° E 18:56:57 10° S
Cosmos 44 3.5 18:47:22 10° NNW 18:52:30 84° WSW 18:57:48 10° SSE
Cosmos 1269 Rocket 3.9 18:48:05 10° SSW 18:53:21 79° ESE 18:58:38 10° NNE
USA 32 3.9 18:48:27 10° S 18:53:39 76° E 18:58:52 10° N
CZ-4C R/B 4.3 18:49:31 10° N 18:53:58 17° NE 18:55:56 15° ENE
Cosmos 494 Rocket 4.5 18:49:59 10° SSE 18:54:42 36° E 18:59:19 10° NE
Cosmos 1513 Rocket 4.4 18:51:19 10° N 18:57:40 83° E 19:03:52 10° S
Cosmos 1633 4.2 18:56:16 10° SSW 18:59:33 36° W 19:02:53 10° NNW
Cosmos 1378 Rocket 3.7 18:56:03 10° N 19:00:28 76° W 19:04:54 10° S
SJ-6B 2.7 18:59:53 10° SSE 19:03:34 58° ENE 19:07:20 10° N
H-2A R/B 3.8 19:01:36 10° S 19:05:23 48° W 19:09:11 10° NNW
Cosmos 1782 Rocket 3.5 19:01:36 10° S 19:06:03 87° W 19:10:29 10° N
GPS 2-05 Rocket1 3.5 19:06:50 10° SW 19:09:31 34° S 19:09:31 34° S
ERS-2 2.6 19:06:41 10° S 19:10:19 62° WSW 19:13:59 10° NNW
Sich 1 Rocket 4.4 19:08:02 10° SSW 19:12:26 53° W 19:16:50 10° N
OAO 1 4.5 19:08:59 10° W 19:14:31 90° N 19:16:38 39° E
SL-16 R/B 2.7 19:09:03 10° NNW 19:14:37 60° WSW 19:20:09 10° S
Tsikada Rocket 4.0 19:09:16 10° S 19:15:41 84° E 19:22:07 10° N
Alouette 2 Rocket 4.5 19:14:20 10° S 19:16:17 27° SSE 19:16:17 27° SSE
CENTAUR R/B 3.8 19:13:37 10° WSW 19:19:08 38° NW 19:25:22 10° NNE
Okean 1 3.9 19:18:00 10° NNW 19:21:55 56° W 19:25:48 10° S
CZ-2D R/B 3.2 19:23:00 24° S 19:25:13 86° WSW 19:29:09 10° NNW
Okean 2 Rocket 3.0 19:22:23 10° S 19:26:46 85° W 19:31:11 10° N
CRYOSAT 2 4.5 19:22:09 10° N 19:27:01 75° W 19:31:51 10° SSW
Meteor 1-13 Rocket 4.0 19:23:29 10° N 19:28:58 65° E 19:31:42 30° SSE
Cosmos 1331 Rocket 4.3 19:25:45 10° N 19:30:19 45° NE 19:30:19 45° NE
Spot 2 Rocket 4.4 19:32:45 32° NNE 19:32:45 32° NNE 19:35:52 10° N
Cosmos 1603 3.6 19:27:45 10° NNW 19:33:20 60° ENE 19:34:01 56° E
H-2A R/B 4.2 19:34:34 10° SSW 19:35:58 11° S 19:36:22 11° S
Geosat 3.8 19:34:37 34° NNE 19:36:54 84° ESE 19:41:55 10° SSW
Cosmos 2251 Rocket 4.3 19:34:02 10° S 19:37:15 36° SSE 19:37:15 36° SSE
Cosmos 2263 Rocket 2.2 19:42:02 10° S 19:46:47 61° SSE 19:46:47 61° SSE
Tiangong 2 3.7 19:45:15 10° W 19:46:52 18° WSW 19:46:52 18° WSW
Cosmos 921 Rocket 4.5 19:43:43 10° NNW 19:47:53 38° W 19:51:58 10° SSW
OAO 2 Rocket 3.2 19:43:14 10° W 19:47:54 80° W 19:47:54 80° W
CZ-3 Stage 3 3.9 19:52:22 10° WSW 19:53:35 17° SW 19:53:35 17° SW
CZ-3C R/B 3.8 19:52:57 10° SW 19:57:51 31° SSE 19:58:15 31° SSE
Meteor 1-5 Rocket 4.4 20:02:39 10° SSW 20:08:28 73° W 20:14:27 10° N
Meteor 2-4 Rocket 4.0 20:03:25 10° NNW 20:09:08 66° W 20:09:41 62° SW
SeaSat 1 3.1 20:09:52 51° WSW 20:09:52 51° WSW 20:14:35 10° NW
Resurs 01 Rocket 3.7 20:21:10 23° NW 20:21:10 23° NW 20:22:59 10° NNW
Cosmos 1634 Rocket 4.2 20:15:29 10° NNW 20:21:35 64° W 20:21:38 64° W
COSMOS 2455 4.0 20:25:14 10° SW 20:30:50 40° WNW 20:32:11 35° NNW
CZ-4C R/B 3.6 20:36:20 10° NNW 20:41:09 45° N 20:41:09 45° N
